Location: Pine Mountain Observatory
(43.7910°N, 120.9377°W)
Time: 00:47:12
(UTC-07:00)

Cosmos 1867 - Visible Passes

Search period start: 01 August 2015 00:00
Search period end: 11 August 2015 00:00
Orbit: 776 x 800 km, 65.0° (Epoch: 30 July)

Date Brightness Start Highest point End Pass type
(mag) Time Alt. Az. Time Alt. Az. Time Alt. Az.
01 Aug 4.6 04:31:38 10° S 04:36:39 41° ESE 04:41:47 10° NE visible
02 Aug 5.0 04:00:58 12° S 04:05:08 30° ESE 04:09:55 10° NE visible
03 Aug 5.4 03:30:36 14° SSE 03:33:39 23° ESE 03:37:53 10° ENE visible
03 Aug 3.8 05:11:31 10° SW 05:16:53 59° NW 05:22:19 10° NNE visible
04 Aug 5.6 03:00:11 13° SE 03:02:11 16° ESE 03:05:36 10° ENE visible
04 Aug 3.6 04:40:52 16° SW 04:45:13 78° NW 04:50:43 10° NNE visible
05 Aug 5.9 02:29:43 11° ESE 02:30:45 11° ESE 02:32:40 10° E visible
05 Aug 3.6 04:10:24 25° SSW 04:13:35 80° ESE 04:19:05 10° NE visible
06 Aug 3.8 03:39:53 35° S 03:42:00 60° ESE 03:47:24 10° NE visible
06 Aug 4.9 05:21:23 10° W 05:26:01 27° NW 05:30:38 10° NNE visible
07 Aug 4.2 03:09:19 39° SSE 03:10:27 44° ESE 03:15:38 10° NE visible
07 Aug 4.6 04:49:59 13° WSW 04:54:12 34° NW 04:59:09 10° NNE visible
08 Aug 4.6 02:38:43 32° ESE 02:38:55 33° ESE 02:43:47 10° NE visible
08 Aug 4.3 04:19:23 23° WSW 04:22:26 43° NW 04:27:39 10° NNE visible
09 Aug 5.2 02:08:04 24° E 02:08:04 24° E 02:11:47 10° ENE visible
09 Aug 3.9 03:48:44 36° WSW 03:50:42 56° NW 03:56:06 10° NNE visible
10 Aug 5.6 01:37:23 16° E 01:37:23 16° E 01:39:35 10° ENE visible
10 Aug 3.5 03:18:03 58° WSW 03:19:02 74° NW 03:24:32 10° NNE visible
10 Aug 5.6 04:59:58 10° WNW 05:03:39 18° NNW 05:07:13 10° N visible
